Regional Weather Roundup
Issued by NWS

Home | Current Version | Previous Version | Graphics & Text | Print | Product List | Glossary On
Versions: 1 2 3 4 5 6 7 8 9 10 11 12 13 14 15 16 17 18 19 20 21 22 23 24 25 26 27 28 29 30 31 32 33 34 35 36 37 38 39 40 41 42 43 44 45 46 47 48 49 50
000
ASUS43 KLSX 160510
RWRMO

WEATHER SUMMARY FOR MISSOURI
NATIONAL WEATHER SERVICE SPRINGFIELD MO
1100 PM CST SUN JAN 15 2017

NOTE: "FAIR" INDICATES FEW OR NO CLOUDS BELOW 12,000 FEET WITH NO
       SIGNIFICANT WEATHER AND/OR OBSTRUCTIONS TO VISIBILITY.
       CURRENT SKY AND/OR WEATHER CONDITIONS ARE NOT AVAILABLE FOR
       CHILLICOTHE AND FARMINGTON.

MOZ001>031-035>038-043-044-053-054-160600-
...NORTHERN AND WESTERN MISSOURI...

CITY           SKY/WX    TMP DP  RH WIND       PRES   REMARKS
KANSAS CTY INT FRZ RAIN  32  30  92 E9        30.13F VSB 1/2 WCI  24
KANSAS C DTWN  FOG       33  33 100 NE9       30.12F VSB 1/2 WCI  25
LEE`S SUMMIT   FOG       33  33 100 NE6       30.12F VSB 1/2 WCI  28
ST JOSEPH      CLOUDY    32  32 100 E5        30.16R FOG     WCI  27
CHILLICOTHE      N/A     32  31  96 E3        30.18F
KIRKSVILLE     CLOUDY    31  31 100 E7        30.19S FOG     WCI  24

$$
MOZ066>068-077>081-088>096-101>105-160600-
...SOUTHWEST MISSOURI...

CITY           SKY/WX    TMP DP  RH WIND       PRES   REMARKS
SPRINGFIELD    CLOUDY    44  42  93 SE13      30.08F
JOPLIN         RAIN      47  47 100 MISG      30.03F FOG
BRANSON        FOG       41  41 100 SE12      30.11F VSB<1/4

$$
MOZ032>034-039>042-045>050-055>058-069>072-160600-
...CENTRAL MISSOURI...

CITY           SKY/WX    TMP DP  RH WIND       PRES   REMARKS
COLUMBIA       FOG       34  33  96 SE13      30.16F VSB 3/4 WCI  25
JEFFERSON CITY CLOUDY    35  34  96 E10       30.18F WCI  27
ROLLA          FOG       33  33 100 E10       30.15F VSB 1/2 WCI  25
SEDALIA        FOG       35  34  96 E8        30.15F VSB 3/4 WCI  29
WHITEMAN AFB   CLOUDY    34  34 100 E8        30.11F FOG     WCI  28
WARRENSBURG    FOG       34  32  93 NE6       30.13S VSB 3/4 WCI  29

$$
MOZ051-052-059>065-160600-
...EAST CENTRAL MISSOURI...

CITY           SKY/WX    TMP DP  RH WIND       PRES   REMARKS
ST LOUIS INTL  FOG       37  35  92 E8        30.21F VSB 1/4
SPIRIT OF STL  FOG       36  36 100 E3        30.22F VSB 1
ST CHARLES     CLOUDY    35  35 100 E7        30.22F FOG     WCI  29

$$
MOZ072>076-082>087-097>100-106>115-160600-
...SOUTH CENTRAL AND SOUTHEAST MISSOURI...

CITY           SKY/WX    TMP DP  RH WIND       PRES   REMARKS
CAPE GIRARDEAU CLOUDY    40  39  97 E5        30.22F FOG
FARMINGTON     LGT RAIN  35  35 100 SE3       30.20F VSB 1/4
POPLAR BLUFF   FOG       41  41 100 NE6       30.20F VSB 1
WEST PLAINS    FOG       40  40 100 E8        30.16F VSB 3/4

$$




USA.gov is the U.S. government's official web portal to all federal, state and local government web resources and services.